KC3ELT-10 Weather Reports


Display with metric or nautical units.
time (UTC)temp
F
wind
direction
speed
MPH
gust
MPH
rain 1hr
in
rain 24hr
in
rain mn
in
humidity
%
barometer
mb
20260506172259 57 179 2.0 14.0 0.00 0.00 0.00 90 1001.8
20260506171759 57 181 6.0 14.0 0.00 0.00 0.00 90 1001.8
20260506171259 57 183 4.0 16.0 0.00 0.00 0.00 90 1001.8
20260506170759 57 143 4.0 15.0 0.00 0.00 0.00 90 1001.8
20260506170259 57 275 7.0 14.0 0.00 0.00 0.00 90 1001.8
20260506165759 57 202 3.0 16.0 0.00 0.00 0.00 90 1001.9
20260506165259 58 207 5.0 15.0 0.00 0.00 0.00 90 1001.9
20260506164759 58 113 5.0 15.0 0.00 0.00 0.00 90 1001.9
20260506164259 58 252 4.0 15.0 0.00 0.00 0.00 90 1001.4
20260506163759 57 193 3.0 15.0 0.00 0.00 0.00 90 1001.4
20260506163259 57 184 5.0 15.0 0.00 0.00 0.00 90 1001.4
20260506162759 57 201 1.0 21.0 0.00 0.00 0.00 89 1001.5
20260506162259 57 117 10.0 21.0 0.00 0.00 0.00 89 1001.5
20260506161759 58 162 3.0 10.0 0.00 0.00 0.00 89 1001.5
20260506161259 58 156 4.0 18.0 0.00 0.00 0.00 89 1002.3
20260506160759 58 158 6.0 18.0 0.00 0.00 0.00 89 1002.3
20260506160259 58 144 6.0 10.0 0.00 0.00 0.00 89 1002.3
20260506155759 58 167 2.0 19.0 0.00 0.00 0.00 89 1002.6
20260506155259 58 176 1.0 19.0 0.00 0.00 0.00 89 1002.6
20260506154759 58 184 5.0 19.0 0.00 0.00 0.00 88 1002.6
20260506154259 58 176 5.0 20.0 0.00 0.00 0.00 88 1002.9
20260506153759 58 255 6.0 20.0 0.00 0.00 0.00 88 1002.9
20260506153259 58 209 4.0 9.0 0.00 0.00 0.00 88 1002.9
20260506152759 58 158 3.0 16.0 0.00 0.00 0.00 88 1003.0
20260506152259 58 166 3.0 12.0 0.00 0.00 0.00 87 1003.0
20260506151759 58 203 5.0 12.0 0.00 0.00 0.00 87 1003.0
20260506151259 58 193 7.0 16.0 0.00 0.00 0.00 87 1002.6
20260506150759 59 161 2.0 16.0 0.00 0.00 0.00 87 1002.6
20260506150303 59 184 3.0 12.0 0.00 0.00 0.00 87 1002.6
20260506145759 59 166 3.0 13.0 0.00 0.00 0.00 86 1002.6
20260506145259 59 181 2.0 13.0 0.00 0.00 0.00 86 1002.6
20260506144759 59 203 3.0 10.0 0.00 0.00 0.00 85 1002.6
20260506144259 59 143 3.0 13.0 0.00 0.00 0.00 85 1002.9
20260506143759 59 342 3.0 13.0 0.00 0.00 0.00 84 1002.9
20260506143259 60 128 3.0 13.0 0.00 0.00 0.00 83 1002.9
20260506142759 60 170 1.0 14.0 0.00 0.00 0.00 83 1002.9
20260506142259 60 199 5.0 14.0 0.00 0.00 0.00 82 1002.9
20260506141759 61 223 4.0 13.0 0.00 0.00 0.00 81 1002.9
20260506141259 61 194 4.0 13.0 0.00 0.00 0.00 80 1002.5
20260506140759 61 0 0.0 13.0 0.00 0.00 0.00 80 1002.5
20260506140259 61 187 2.0 9.0 0.00 0.00 0.00 80 1002.5
20260506135759 61 200 9.0 10.0 0.00 0.00 0.00 80 1002.6
20260506135259 61 275 3.0 9.0 0.00 0.00 0.00 81 1002.6
20260506134759 61 238 2.0 9.0 0.00 0.00 0.00 80 1002.6
20260506134259 61 193 3.0 12.0 0.00 0.00 0.00 80 1002.8
20260506133759 61 129 3.0 12.0 0.00 0.00 0.00 79 1002.8
20260506133259 61 172 3.0 7.0 0.00 0.00 0.00 79 1002.8
20260506132759 61 154 3.0 14.0 0.00 0.00 0.00 79 1002.9
20260506132259 61 137 2.0 12.0 0.00 0.00 0.00 79 1002.9
20260506131759 61 214 4.0 10.0 0.00 0.00 0.00 79 1002.9
20260506131259 61 150 9.0 14.0 0.00 0.00 0.00 79 1002.8
20260506130759 61 151 1.0 12.0 0.00 0.00 0.00 78 1002.8
20260506130259 61 198 5.0 6.0 0.00 0.00 0.00 78 1002.8
20260506125759 62 208 3.0 15.0 0.00 0.00 0.00 78 1002.9
20260506125259 62 197 9.0 15.0 0.00 0.00 0.00 77 1002.9
20260506124759 62 222 5.0 5.0 0.00 0.00 0.00 77 1002.9
20260506124259 62 220 2.0 14.0 0.00 0.00 0.00 77 1002.8
20260506123759 62 190 5.0 14.0 0.00 0.00 0.00 77 1002.8
20260506123259 62 204 7.0 14.0 0.00 0.00 0.00 77 1002.8
20260506122759 62 250 6.0 15.0 0.00 0.00 0.00 77 1002.7
20260506122259 62 206 6.0 15.0 0.00 0.00 0.00 77 1002.7
20260506121759 62 182 1.0 15.0 0.00 0.00 0.00 77 1002.7
20260506121316 62 136 2.0 13.0 0.00 0.00 0.00 77 1002.5
20260506120759 62 182 4.0 10.0 0.00 0.00 0.00 77 1002.5
20260506120259 61 235 6.0 9.0 0.00 0.00 0.00 77 1002.5
20260506115759 61 178 4.0 12.0 0.00 0.00 0.00 77 1002.5
20260506115259 61 186 3.0 12.0 0.00 0.00 0.00 77 1002.5
20260506114759 61 188 5.0 7.0 0.00 0.00 0.00 78 1002.5
20260506114259 61 214 6.0 12.0 0.00 0.00 0.00 78 1002.2
20260506113759 61 181 2.0 12.0 0.00 0.00 0.00 78 1002.2
20260506113259 61 165 2.0 7.0 0.00 0.00 0.00 77 1002.2
20260506112759 61 205 4.0 17.0 0.00 0.00 0.00 77 1002.5
20260506112259 61 181 3.0 17.0 0.00 0.00 0.00 77 1002.5
20260506111759 61 187 6.0 11.0 0.00 0.00 0.00 77 1002.5
20260506111259 61 167 2.0 16.0 0.00 0.00 0.00 77 1002.1
20260506110759 61 179 4.0 16.0 0.00 0.00 0.00 77 1002.1
20260506110259 61 177 7.0 16.0 0.00 0.00 0.00 77 1002.1
20260506105759 61 191 1.0 18.0 0.00 0.00 0.00 77 1002.0
20260506105259 61 202 2.0 12.0 0.00 0.00 0.00 77 1002.0
20260506104759 61 212 3.0 10.0 0.00 0.00 0.00 77 1002.0
20260506104259 61 216 6.0 17.0 0.00 0.00 0.00 77 1002.0
20260506103759 61 163 7.0 17.0 0.00 0.00 0.00 77 1002.0
20260506103259 61 188 4.0 15.0 0.00 0.00 0.00 77 1002.0
20260506102759 62 131 3.0 15.0 0.00 0.00 0.00 77 1002.0
20260506102259 62 204 2.0 15.0 0.00 0.00 0.00 77 1002.0
20260506101759 62 225 7.0 10.0 0.00 0.00 0.00 77 1002.0
20260506101259 62 172 3.0 14.0 0.00 0.00 0.00 76 1001.9
20260506100759 62 170 2.0 14.0 0.00 0.00 0.00 76 1001.9
20260506100259 62 210 11.0 14.0 0.00 0.00 0.00 76 1001.9
20260506095759 62 152 9.0 16.0 0.00 0.00 0.00 76 1001.9
20260506095259 62 220 11.0 16.0 0.00 0.00 0.00 76 1001.9
20260506094759 62 181 5.0 11.0 0.00 0.00 0.00 76 1001.9
20260506094259 62 224 7.0 17.0 0.00 0.00 0.00 76 1001.6
20260506093759 62 176 3.0 17.0 0.00 0.00 0.00 76 1001.6
20260506093259 62 162 9.0 17.0 0.00 0.00 0.00 76 1001.6
20260506092759 62 108 5.0 20.0 0.00 0.00 0.00 76 1001.5
20260506092259 62 207 5.0 20.0 0.00 0.00 0.00 76 1001.5
20260506091759 62 243 12.0 20.0 0.00 0.00 0.00 76 1001.5
20260506091259 63 150 9.0 17.0 0.00 0.00 0.00 76 1001.9
20260506090759 62 232 9.0 17.0 0.00 0.00 0.00 76 1001.9
20260506090259 63 193 3.0 17.0 0.00 0.00 0.00 75 1001.9
20260506085759 63 177 7.0 16.0 0.00 0.00 0.00 75 1002.0
20260506085259 63 196 3.0 14.0 0.00 0.00 0.00 75 1002.0
20260506084759 62 181 4.0 13.0 0.00 0.00 0.00 75 1002.0
20260506084259 63 201 3.0 14.0 0.00 0.00 0.00 75 1002.0
20260506083759 63 125 3.0 14.0 0.00 0.00 0.00 75 1002.0
20260506083259 63 110 6.0 14.0 0.00 0.00 0.00 74 1002.0
20260506082759 63 143 7.0 17.0 0.00 0.00 0.00 74 1002.0
20260506082259 63 132 4.0 17.0 0.00 0.00 0.00 74 1002.0
20260506081759 63 195 6.0 17.0 0.00 0.00 0.00 74 1002.0
20260506081259 63 187 7.0 14.0 0.00 0.00 0.00 74 1002.0
20260506080759 63 148 6.0 14.0 0.00 0.00 0.00 74 1002.0
20260506080259 63 167 3.0 9.0 0.00 0.00 0.00 73 1002.0
20260506073259 63 193 4.0 9.0 0.00 0.00 0.00 72 1002.2
20260506072759 63 165 5.0 14.0 0.00 0.00 0.00 72 1002.4
20260506072259 63 161 4.0 14.0 0.00 0.00 0.00 71 1002.4
20260506071759 63 149 6.0 11.0 0.00 0.00 0.00 71 1002.4
20260506071259 63 154 4.0 16.0 0.00 0.00 0.00 71 1002.4
20260506070759 63 188 5.0 16.0 0.00 0.00 0.00 71 1002.4
20260506070259 63 147 6.0 16.0 0.00 0.00 0.00 71 1002.4
20260506062259 64 199 2.0 14.0 0.00 0.00 0.00 69 1002.8
20260506061758 64 242 4.0 14.0 0.00 0.00 0.00 68 1002.8
20260506061258 64 196 3.0 14.0 0.00 0.00 0.00 68 1003.0
20260506060758 64 229 4.0 14.0 0.00 0.00 0.00 68 1003.0
20260506060259 64 206 12.0 12.0 0.00 0.00 0.00 68 1003.0
20260506051259 64 202 3.0 14.0 0.00 0.00 0.00 66 1003.3
20260506050758 64 146 6.0 14.0 0.00 0.00 0.00 67 1003.3
20260506050258 64 188 3.0 11.0 0.00 0.00 0.00 67 1003.3
20260506044758 64 165 2.0 14.0 0.00 0.00 0.00 67 1003.4
20260506044259 64 207 4.0 17.0 0.00 0.00 0.00 67 1003.4
20260506043758 64 167 5.0 17.0 0.00 0.00 0.00 66 1003.4
20260506043258 64 200 11.0 17.0 0.00 0.00 0.00 66 1003.4
20260506042758 64 190 2.0 15.0 0.00 0.00 0.00 65 1003.4
20260506042259 64 0 0.0 15.0 0.00 0.00 0.00 65 1003.4
20260506041759 64 131 9.0 10.0 0.00 0.00 0.00 65 1003.4
20260506041258 65 171 3.0 12.0 0.00 0.00 0.00 64 1003.2
20260506040759 65 162 6.0 12.0 0.00 0.00 0.00 64 1003.2
20260506040258 65 150 6.0 12.0 0.00 0.00 0.00 63 1003.2
20260506035758 65 219 6.0 11.0 0.00 0.00 0.00 62 1003.3
20260506035258 65 176 5.0 11.0 0.00 0.00 0.00 62 1003.3
20260506034758 66 167 2.0 9.0 0.00 0.00 0.00 61 1003.3
20260506034259 66 136 4.0 12.0 0.00 0.00 0.00 61 1003.0
20260506033759 66 205 4.0 11.0 0.00 0.00 0.00 60 1003.0
20260506033259 66 190 10.0 11.0 0.00 0.00 0.00 60 1003.0
20260506032758 67 174 2.0 13.0 0.00 0.00 0.00 59 1003.1
20260506032258 67 88 5.0 12.0 0.00 0.00 0.00 58 1003.1
20260506031759 67 226 3.0 11.0 0.00 0.00 0.00 58 1003.1
20260506031259 67 167 11.0 12.0 0.00 0.00 0.00 58 1003.1
20260506030758 67 147 4.0 11.0 0.00 0.00 0.00 57 1003.1
20260506030258 67 163 4.0 5.0 0.00 0.00 0.00 56 1003.1
20260506025759 67 206 5.0 15.0 0.00 0.00 0.00 56 1003.1
20260506025259 67 145 6.0 15.0 0.00 0.00 0.00 56 1003.1
20260506024759 68 214 15.0 15.0 0.00 0.00 0.00 55 1003.1
20260506024259 68 167 3.0 15.0 0.00 0.00 0.00 55 1003.4
20260506023758 68 193 6.0 15.0 0.00 0.00 0.00 55 1003.4
20260506023259 68 218 4.0 11.0 0.00 0.00 0.00 54 1003.4
20260506022759 68 191 6.0 16.0 0.00 0.00 0.00 54 1003.4
20260506022258 68 212 4.0 16.0 0.00 0.00 0.00 54 1003.4
20260506021758 68 129 7.0 10.0 0.00 0.00 0.00 53 1003.4
20260506021258 68 134 5.0 15.0 0.00 0.00 0.00 53 1003.4
20260506020758 69 178 3.0 15.0 0.00 0.00 0.00 52 1003.4
20260506020258 69 165 5.0 15.0 0.00 0.00 0.00 52 1003.4
20260506015758 69 169 2.0 15.0 0.00 0.00 0.00 52 1003.3
20260506015258 69 126 2.0 12.0 0.00 0.00 0.00 52 1003.3
20260506014759 69 198 5.0 5.0 0.00 0.00 0.00 52 1003.3
20260506014259 69 220 5.0 17.0 0.00 0.00 0.00 52 1003.2
20260506013758 69 150 9.0 17.0 0.00 0.00 0.00 52 1003.2
20260506013259 70 193 5.0 9.0 0.00 0.00 0.00 51 1003.2
20260506012758 70 159 2.0 16.0 0.00 0.00 0.00 51 1003.0
20260506012259 70 196 7.0 16.0 0.00 0.00 0.00 50 1003.0
20260506011758 70 162 4.0 16.0 0.00 0.00 0.00 50 1003.0
20260506011258 70 167 3.0 14.0 0.00 0.00 0.00 50 1002.9
20260506010759 70 189 2.0 10.0 0.00 0.00 0.00 49 1002.9
20260506010258 71 143 6.0 10.0 0.00 0.00 0.00 47 1002.9
20260506005758 71 131 5.0 12.0 0.00 0.00 0.00 46 1002.8
20260506005258 71 207 9.0 12.0 0.00 0.00 0.00 46 1002.8
20260506004759 71 184 1.0 6.0 0.00 0.00 0.00 46 1002.8
20260506004259 72 191 5.0 16.0 0.00 0.00 0.00 45 1002.6
20260506003759 72 189 3.0 16.0 0.00 0.00 0.00 46 1002.6
20260506003258 72 165 1.0 10.0 0.00 0.00 0.00 45 1002.6
20260506002759 72 125 4.0 13.0 0.00 0.00 0.00 45 1002.3
20260506002258 72 96 2.0 12.0 0.00 0.00 0.00 45 1002.3
20260506001758 72 167 4.0 12.0 0.00 0.00 0.00 45 1002.3
20260506001258 72 176 2.0 18.0 0.00 0.00 0.00 45 1002.6
20260506000758 72 195 2.0 18.0 0.00 0.00 0.00 45 1002.6
20260506000258 72 198 6.0 15.0 0.00 0.00 0.00 45 1002.6
20260505235758 72 163 2.0 13.0 0.00 0.00 0.00 44 1002.4
20260505235258 73 209 10.0 13.0 0.00 0.00 0.00 44 1002.4
20260505234759 73 300 2.0 13.0 0.00 0.00 0.00 44 1002.4
20260505234259 73 280 5.0 20.0 0.00 0.00 0.00 43 1002.3
20260505233758 73 223 4.0 20.0 0.00 0.00 0.00 43 1002.3
20260505233258 73 203 10.0 20.0 0.00 0.00 0.00 43 1002.3
20260505232758 73 172 5.0 18.0 0.00 0.00 0.00 41 1002.3
20260505232258 74 176 10.0 15.0 0.00 0.00 0.00 41 1002.3
20260505231759 74 171 5.0 15.0 0.00 0.00 0.00 41 1002.3
20260505231258 74 197 5.0 18.0 0.00 0.00 0.00 41 1002.4
20260505230759 74 175 10.0 18.0 0.00 0.00 0.00 41 1002.4
20260505230258 74 186 2.0 12.0 0.00 0.00 0.00 41 1002.4
20260505225758 75 200 4.0 21.0 0.00 0.00 0.00 40 1002.1
20260505225258 75 205 7.0 21.0 0.00 0.00 0.00 39 1002.1
20260505224758 75 197 6.0 21.0 0.00 0.00 0.00 39 1002.1
20260505224258 75 149 9.0 16.0 0.00 0.00 0.00 39 1002.0
20260505223759 76 230 6.0 16.0 0.00 0.00 0.00 40 1002.0
20260505223258 76 194 3.0 16.0 0.00 0.00 0.00 40 1002.0
20260505222758 76 234 9.0 16.0 0.00 0.00 0.00 40 1002.2
20260505222258 76 195 4.0 16.0 0.00 0.00 0.00 38 1002.2
20260505221759 76 185 5.0 13.0 0.00 0.00 0.00 39 1002.2
20260505221259 76 213 2.0 15.0 0.00 0.00 0.00 39 1002.0
20260505220758 76 259 3.0 15.0 0.00 0.00 0.00 40 1002.0
20260505220259 76 195 5.0 13.0 0.00 0.00 0.00 39 1002.0
20260505215758 76 252 2.0 17.0 0.00 0.00 0.00 40 1002.2
20260505215258 76 174 7.0 17.0 0.00 0.00 0.00 39 1002.2
20260505214758 76 238 6.0 16.0 0.00 0.00 0.00 39 1002.2
20260505214258 76 214 3.0 18.0 0.00 0.00 0.00 40 1002.1
20260505213758 76 245 6.0 15.0 0.00 0.00 0.00 39 1002.1
20260505213258 76 234 5.0 5.0 0.00 0.00 0.00 40 1002.1
20260505212759 76 185 3.0 13.0 0.00 0.00 0.00 41 1002.0
20260505212259 76 227 2.0 13.0 0.00 0.00 0.00 40 1002.0
20260505211758 76 184 6.0 13.0 0.00 0.00 0.00 39 1002.0
20260505211258 76 195 13.0 22.0 0.00 0.00 0.00 41 1001.7
20260505210758 76 162 3.0 22.0 0.00 0.00 0.00 39 1001.7
20260505210259 76 274 9.0 22.0 0.00 0.00 0.00 39 1001.7
20260505205758 76 257 6.0 18.0 0.00 0.00 0.00 39 1001.7
20260505205258 76 192 7.0 14.0 0.00 0.00 0.00 39 1001.7
20260505204758 76 200 4.0 13.0 0.00 0.00 0.00 40 1001.7
20260505204258 76 229 6.0 16.0 0.00 0.00 0.00 39 1001.7
20260505203759 77 278 9.0 15.0 0.00 0.00 0.00 38 1001.7
20260505203258 77 242 4.0 13.0 0.00 0.00 0.00 38 1001.7
20260505202758 78 219 6.0 16.0 0.00 0.00 0.00 39 1001.8
20260505202258 77 262 4.0 16.0 0.00 0.00 0.00 39 1001.8
20260505201758 77 205 6.0 16.0 0.00 0.00 0.00 38 1001.8
20260505201258 77 218 7.0 16.0 0.00 0.00 0.00 37 1002.0
20260505200758 77 188 3.0 16.0 0.00 0.00 0.00 37 1002.0
20260505200258 77 264 2.0 10.0 0.00 0.00 0.00 36 1002.0
20260505195758 78 204 3.0 16.0 0.00 0.00 0.00 36 1001.7
20260505195258 78 216 10.0 16.0 0.00 0.00 0.00 36 1001.7
20260505194758 77 271 5.0 16.0 0.00 0.00 0.00 37 1001.7
20260505194258 77 134 10.0 22.0 0.00 0.00 0.00 36 1001.7
20260505193758 78 231 4.0 17.0 0.00 0.00 0.00 35 1001.7
20260505193258 78 250 6.0 12.0 0.00 0.00 0.00 37 1001.7
20260505192758 78 203 14.0 16.0 0.00 0.00 0.00 35 1002.0
20260505192258 78 144 4.0 16.0 0.00 0.00 0.00 35 1002.0
20260505191759 77 252 7.0 16.0 0.00 0.00 0.00 35 1002.0
20260505191259 77 190 6.0 18.0 0.00 0.00 0.00 36 1002.1
20260505190759 78 176 16.0 18.0 0.00 0.00 0.00 35 1002.1
20260505190259 78 229 10.0 15.0 0.00 0.00 0.00 34 1002.1
20260505185758 78 202 6.0 18.0 0.00 0.00 0.00 34 1002.3
20260505185259 78 207 5.0 15.0 0.00 0.00 0.00 34 1002.3
20260505184758 79 185 7.0 12.0 0.00 0.00 0.00 34 1002.3
20260505184258 79 307 7.0 18.0 0.00 0.00 0.00 34 1002.4
20260505183759 78 210 4.0 18.0 0.00 0.00 0.00 34 1002.4
20260505183258 78 228 3.0 14.0 0.00 0.00 0.00 34 1002.4
20260505182759 78 231 6.0 26.0 0.00 0.00 0.00 34 1002.6
20260505182259 78 187 4.0 20.0 0.00 0.00 0.00 35 1002.6
20260505181758 78 222 5.0 12.0 0.00 0.00 0.00 34 1002.6
20260505181258 79 262 7.0 16.0 0.00 0.00 0.00 37 1002.7
20260505180758 78 203 2.0 13.0 0.00 0.00 0.00 40 1002.7
20260505180258 78 142 5.0 10.0 0.00 0.00 0.00 38 1002.7
20260505175759 78 248 2.0 15.0 0.00 0.00 0.00 37 1002.9
20260505175258 78 257 6.0 12.0 0.00 0.00 0.00 39 1002.9
20260505174759 77 173 4.0 12.0 0.00 0.00 0.00 37 1002.9
20260505174258 77 281 2.0 21.0 0.00 0.00 0.00 38 1002.9
20260505173758 78 175 10.0 17.0 0.00 0.00 0.00 40 1002.9
20260505173258 77 187 4.0 14.0 0.00 0.00 0.00 40 1002.9
20260505172758 77 219 3.0 18.0 0.00 0.00 0.00 42 1003.2